timestamp,wind_dir_avg,wind_spd_avg,wind_spd_max_dir,wind_spd_gust,battery_voltage,lat,long
2021-03-28 00:04:01+00:00,30.0,16.6,30.0,18.85,12.41,47.59359,-54.27349
2021-03-28 00:14:01+00:00,32.0,15.76,39.0,18.26,12.41,47.59359,-54.27349
2021-03-28 00:24:01+00:00,30.0,16.08,26.0,19.1,12.41,47.59359,-54.27349
2021-03-28 00:34:01+00:00,38.0,15.49,47.0,18.86,12.41,47.59359,-54.27349
2021-03-28 00:44:01+00:00,35.0,16.27,35.0,19.88,12.41,47.59359,-54.27349
2021-03-28 00:54:01+00:00,27.0,15.07,28.0,17.74,12.41,47.59359,-54.27349
2021-03-28 01:04:01+00:00,30.0,15.47,29.0,17.84,12.41,47.59359,-54.27349
2021-03-28 01:14:01+00:00,36.0,15.55,31.0,17.0,12.33,47.59359,-54.27349
2021-03-28 01:24:01+00:00,28.0,13.95,25.0,15.88,12.33,47.59359,-54.27349
2021-03-28 01:34:01+00:00,29.0,15.54,31.0,18.0,12.33,47.59359,-54.27349
2021-03-28 01:44:01+00:00,27.0,16.18,31.0,19.1,12.33,47.59359,-54.27349
2021-03-28 01:54:01+00:00,32.0,15.29,41.0,19.03,12.33,47.59359,-54.27349
2021-03-28 02:04:01+00:00,31.0,13.55,31.0,16.33,12.33,47.59359,-54.27349
2021-03-28 02:14:01+00:00,19.0,12.32,19.0,14.3,12.33,47.59359,-54.27349
2021-03-28 02:24:01+00:00,16.0,12.99,21.0,14.71,12.33,47.59359,-54.27349
2021-03-28 02:34:01+00:00,18.0,15.17,16.0,16.55,12.33,47.59359,-54.27349
2021-03-28 02:44:01+00:00,24.0,13.78,25.0,15.73,12.33,47.59359,-54.27349
2021-03-28 02:54:01+00:00,23.0,14.74,24.0,16.71,12.33,47.59359,-54.27349
2021-03-28 03:04:01+00:00,25.0,14.71,26.0,16.88,12.33,47.59359,-54.27349
2021-03-28 03:14:01+00:00,17.0,13.28,19.0,15.06,12.33,47.59359,-54.27349
2021-03-28 03:24:01+00:00,20.0,13.91,24.0,15.44,12.33,47.59359,-54.27349
2021-03-28 03:34:01+00:00,16.0,14.1,12.0,20.23,12.33,47.59359,-54.27349
2021-03-28 03:44:01+00:00,16.0,11.93,13.0,14.03,12.33,47.59359,-54.27349
2021-03-28 03:54:01+00:00,21.0,12.41,29.0,14.47,12.33,47.59359,-54.27349
2021-03-28 04:04:01+00:00,16.0,11.17,22.0,14.16,12.33,47.59359,-54.27349
2021-03-28 04:14:01+00:00,19.0,12.28,15.0,14.55,12.33,47.59359,-54.27349
2021-03-28 04:24:01+00:00,18.0,12.51,10.0,15.06,12.33,47.59359,-54.27349
2021-03-28 04:34:01+00:00,21.0,14.59,28.0,18.24,12.33,47.59359,-54.27349
2021-03-28 04:44:01+00:00,24.0,13.92,31.0,15.84,12.33,47.59359,-54.27349
2021-03-28 04:54:01+00:00,21.0,13.63,21.0,15.94,12.33,47.59359,-54.27349
2021-03-28 05:04:01+00:00,17.0,13.88,20.0,16.05,12.33,47.59359,-54.27349
2021-03-28 05:14:01+00:00,18.0,11.83,11.0,16.08,12.33,47.59359,-54.27349
2021-03-28 05:24:01+00:00,12.0,12.05,15.0,14.04,12.33,47.59359,-54.27349
2021-03-28 05:34:01+00:00,7.0,12.68,5.0,16.81,12.33,47.59359,-54.27349
2021-03-28 05:44:01+00:00,15.0,14.48,12.0,16.17,12.33,47.59359,-54.27349
2021-03-28 05:54:01+00:00,14.0,13.31,20.0,16.27,12.33,47.59359,-54.27349
2021-03-28 06:04:01+00:00,15.0,12.1,21.0,14.41,12.33,47.59359,-54.27349
2021-03-28 06:14:01+00:00,15.0,12.92,17.0,15.75,12.25,47.59359,-54.27349
2021-03-28 06:24:01+00:00,18.0,12.9,19.0,14.71,12.25,47.59359,-54.27349
2021-03-28 06:34:01+00:00,16.0,12.84,16.0,14.72,12.25,47.59359,-54.27349
2021-03-28 06:44:01+00:00,21.0,12.51,26.0,13.68,12.25,47.59359,-54.27349
2021-03-28 06:54:01+00:00,16.0,12.29,12.0,16.41,12.25,47.59359,-54.27349
2021-03-28 07:04:01+00:00,19.0,11.66,21.0,13.39,12.25,47.59359,-54.27349
2021-03-28 07:14:01+00:00,16.0,10.93,19.0,12.74,12.25,47.59359,-54.27349
2021-03-28 07:24:01+00:00,18.0,11.72,16.0,13.13,12.25,47.59359,-54.27349
2021-03-28 07:34:01+00:00,17.0,11.05,21.0,12.53,12.25,47.59359,-54.27349
2021-03-28 07:44:01+00:00,17.0,11.41,24.0,14.0,12.25,47.59359,-54.27349
2021-03-28 07:54:01+00:00,19.0,11.69,21.0,13.44,12.25,47.59359,-54.27349
2021-03-28 08:04:01+00:00,18.0,11.7,23.0,13.63,12.25,47.59359,-54.27349
2021-03-28 08:14:01+00:00,3.0,12.55,19.0,13.72,12.17,47.59359,-54.27349
2021-03-28 08:24:01+00:00,11.0,10.64,3.0,13.4,12.17,47.59359,-54.27349
2021-03-28 08:34:01+00:00,12.0,11.27,25.0,13.71,12.17,47.59359,-54.27349
2021-03-28 08:44:01+00:00,0.0,9.71,0.0,11.42,12.17,47.59359,-54.27349
2021-03-28 08:54:01+00:00,17.0,9.49,30.0,11.65,12.17,47.59359,-54.27349
2021-03-28 09:04:01+00:00,2.0,11.25,0.0,12.47,12.17,47.59359,-54.27349
2021-03-28 09:14:01+00:00,3.0,10.41,2.0,11.63,12.17,47.59359,-54.27349
2021-03-28 09:24:01+00:00,0.0,10.75,1.0,11.98,12.17,47.59359,-54.27349
2021-03-28 09:34:01+00:00,17.0,10.05,27.0,11.84,12.17,47.59359,-54.27349
2021-03-28 09:44:01+00:00,13.0,10.03,3.0,11.92,12.17,47.59359,-54.27349
2021-03-28 09:54:01+00:00,30.0,10.48,34.0,11.56,12.17,47.59359,-54.27349
2021-03-28 10:04:01+00:00,17.0,10.26,26.0,12.26,12.17,47.59359,-54.27349
2021-03-28 10:14:01+00:00,27.0,11.27,27.0,12.57,12.33,47.59359,-54.27349
2021-03-28 10:24:01+00:00,18.0,9.78,31.0,12.03,12.33,47.59359,-54.27349
2021-03-28 10:34:01+00:00,26.0,10.97,32.0,12.03,12.33,47.59359,-54.27349
2021-03-28 10:44:01+00:00,11.0,9.93,30.0,11.74,12.33,47.59359,-54.27349
2021-03-28 10:54:01+00:00,9.0,10.13,2.0,11.33,12.33,47.59359,-54.27349
2021-03-28 11:04:01+00:00,11.0,9.65,25.0,11.56,12.33,47.59359,-54.27349
2021-03-28 11:14:01+00:00,19.0,9.56,30.0,11.99,13.84,47.59359,-54.27349
2021-03-28 11:24:01+00:00,2.0,9.94,1.0,11.64,13.84,47.59359,-54.27349
2021-03-28 11:34:01+00:00,2.0,9.76,358.0,10.81,13.84,47.59359,-54.27349
2021-03-28 11:44:01+00:00,14.0,8.95,33.0,11.17,13.84,47.59359,-54.27349
2021-03-28 11:54:01+00:00,2.0,8.88,3.0,10.09,13.84,47.59359,-54.27349
2021-03-28 12:04:01+00:00,356.0,9.52,342.0,10.47,13.84,47.59359,-54.27349
2021-03-28 12:14:01+00:00,0.0,8.75,0.0,10.11,13.68,47.59359,-54.27349
2021-03-28 12:24:01+00:00,354.0,9.1,350.0,10.08,13.68,47.59359,-54.27349
2021-03-28 12:34:01+00:00,358.0,8.19,2.0,9.68,13.68,47.59359,-54.27349
2021-03-28 12:44:01+00:00,358.0,7.69,358.0,9.05,13.68,47.59359,-54.27349
2021-03-28 12:54:01+00:00,359.0,8.57,4.0,10.04,13.68,47.59359,-54.27349
2021-03-28 13:04:01+00:00,354.0,7.72,356.0,8.43,13.68,47.59359,-54.27349
2021-03-28 13:14:01+00:00,349.0,7.91,347.0,8.87,14.0,47.59359,-54.27349
2021-03-28 13:24:01+00:00,356.0,7.02,359.0,7.87,14.0,47.59359,-54.27349
2021-03-28 13:34:01+00:00,3.0,5.57,13.0,6.36,14.0,47.59359,-54.27349
2021-03-28 13:44:01+00:00,352.0,6.28,348.0,7.75,14.0,47.59359,-54.27349
2021-03-28 13:54:01+00:00,356.0,6.74,359.0,7.59,14.0,47.59359,-54.27349
2021-03-28 14:04:01+00:00,355.0,6.86,356.0,7.77,14.0,47.59359,-54.27349
2021-03-28 14:14:01+00:00,347.0,6.23,345.0,6.86,13.68,47.59359,-54.27349
2021-03-28 14:24:01+00:00,349.0,4.38,338.0,5.5,13.68,47.59359,-54.27349
2021-03-28 14:34:01+00:00,358.0,3.76,358.0,5.21,13.68,47.59359,-54.27349
2021-03-28 14:44:01+00:00,6.0,3.47,0.0,4.54,13.68,47.59359,-54.27349
2021-03-28 14:54:01+00:00,15.0,5.82,36.0,6.81,13.68,47.59359,-54.27349
2021-03-28 15:04:01+00:00,17.0,5.92,45.0,8.04,13.68,47.59359,-54.27349
2021-03-28 15:14:01+00:00,354.0,4.13,358.0,4.8,14.32,47.59359,-54.27349
2021-03-28 15:24:01+00:00,14.0,5.24,43.0,7.77,14.32,47.59359,-54.27349
2021-03-28 15:34:01+00:00,345.0,3.6,346.0,4.17,14.32,47.59359,-54.27349
2021-03-28 15:44:01+00:00,0.0,3.8,1.0,4.73,14.32,47.59359,-54.27349
2021-03-28 15:54:01+00:00,343.0,3.39,329.0,4.35,14.32,47.59359,-54.27349
2021-03-28 16:04:01+00:00,341.0,3.16,340.0,4.14,14.32,47.59359,-54.27349
2021-03-28 16:14:01+00:00,359.0,5.44,355.0,6.19,14.32,47.59359,-54.27349
2021-03-28 16:24:01+00:00,338.0,2.84,340.0,3.19,14.32,47.59359,-54.27349
2021-03-28 16:34:01+00:00,355.0,1.9,350.0,2.64,14.32,47.59359,-54.27349
2021-03-28 16:44:01+00:00,357.0,4.17,356.0,5.0,14.32,47.59359,-54.27349
2021-03-28 16:54:01+00:00,343.0,2.29,354.0,3.05,14.32,47.59359,-54.27349
2021-03-28 17:04:01+00:00,5.0,3.46,2.0,4.17,14.32,47.59359,-54.27349
2021-03-28 17:14:01+00:00,348.0,3.32,347.0,3.87,13.68,47.59359,-54.27349
2021-03-28 17:24:01+00:00,356.0,2.72,359.0,3.19,13.68,47.59359,-54.27349
2021-03-28 17:34:01+00:00,308.0,2.77,304.0,3.36,13.68,47.59359,-54.27349
2021-03-28 17:44:01+00:00,322.0,1.48,327.0,1.81,13.68,47.59359,-54.27349
2021-03-28 17:54:01+00:00,356.0,1.17,358.0,1.93,13.68,47.59359,-54.27349
2021-03-28 18:04:01+00:00,270.0,0.64,271.0,0.89,13.68,47.59359,-54.27349
2021-03-28 18:14:01+00:00,260.0,1.13,276.0,1.71,13.92,47.59359,-54.27349
2021-03-28 18:24:01+00:00,347.0,0.41,354.0,0.82,13.92,47.59359,-54.27349
2021-03-28 18:34:01+00:00,225.0,0.43,226.0,0.82,13.92,47.59359,-54.27349
2021-03-28 18:44:01+00:00,216.0,2.35,212.0,2.96,13.92,47.59359,-54.27349
2021-03-28 18:54:01+00:00,207.0,1.95,220.0,2.64,13.92,47.59359,-54.27349
2021-03-28 19:04:01+00:00,199.0,3.16,197.0,3.64,13.92,47.59359,-54.27349
2021-03-28 19:14:01+00:00,180.0,3.01,179.0,3.34,14.16,47.59359,-54.27349
2021-03-28 19:24:01+00:00,179.0,3.21,181.0,4.08,14.16,47.59359,-54.27349
2021-03-28 19:34:01+00:00,185.0,2.89,195.0,3.23,14.16,47.59359,-54.27349
2021-03-28 19:44:01+00:00,181.0,3.5,185.0,4.13,14.16,47.59359,-54.27349
2021-03-28 19:54:01+00:00,166.0,3.01,176.0,3.33,14.16,47.59359,-54.27349
2021-03-28 20:04:01+00:00,176.0,3.05,181.0,3.62,14.16,47.59359,-54.27349
2021-03-28 20:14:01+00:00,149.0,3.21,147.0,3.91,13.84,47.59359,-54.27349
2021-03-28 20:24:01+00:00,158.0,2.61,156.0,2.89,13.84,47.59359,-54.27349
2021-03-28 20:34:01+00:00,166.0,2.24,161.0,2.59,13.84,47.59359,-54.27349
2021-03-28 20:44:01+00:00,188.0,2.56,179.0,2.94,13.84,47.59359,-54.27349
2021-03-28 20:54:01+00:00,184.0,2.46,169.0,2.85,13.84,47.59359,-54.27349
2021-03-28 21:04:01+00:00,190.0,2.11,178.0,3.24,13.84,47.59359,-54.27349
2021-03-28 21:14:01+00:00,228.0,2.26,221.0,2.66,13.6,47.59359,-54.27349
2021-03-28 21:24:01+00:00,222.0,2.77,230.0,3.42,13.6,47.59359,-54.27349
2021-03-28 21:34:01+00:00,184.0,2.44,216.0,3.69,13.6,47.59359,-54.27349
2021-03-28 21:44:01+00:00,162.0,2.57,161.0,3.11,13.6,47.59359,-54.27349
2021-03-28 21:54:01+00:00,156.0,4.98,152.0,5.51,13.6,47.59359,-54.27349
2021-03-28 22:04:01+00:00,224.0,4.38,227.0,4.81,13.6,47.59359,-54.27349
2021-03-28 22:14:01+00:00,168.0,3.28,221.0,4.45,13.05,47.59359,-54.27349
2021-03-28 22:24:01+00:00,210.0,4.63,218.0,5.65,13.05,47.59359,-54.27349
2021-03-28 22:34:01+00:00,222.0,5.7,220.0,6.18,13.05,47.59359,-54.27349
2021-03-28 22:44:01+00:00,227.0,5.86,227.0,7.14,13.05,47.59359,-54.27349
2021-03-28 22:54:01+00:00,231.0,5.89,228.0,6.63,13.05,47.59359,-54.27349
2021-03-28 23:04:01+00:00,225.0,6.01,230.0,7.15,13.05,47.59359,-54.27349
2021-03-28 23:14:01+00:00,226.0,5.99,228.0,6.83,12.57,47.59359,-54.27349
2021-03-28 23:24:01+00:00,230.0,6.68,229.0,7.29,12.57,47.59359,-54.27349
2021-03-28 23:34:01+00:00,228.0,5.87,230.0,7.26,12.57,47.59359,-54.27349
2021-03-28 23:44:01+00:00,226.0,7.46,231.0,8.45,12.57,47.59359,-54.27349
2021-03-28 23:54:01+00:00,229.0,6.5,236.0,7.52,12.57,47.59359,-54.27349
